Lexington Weather

Lexington, Massachusetts, USA

46°F
12/8/2022 3:57pm 
  • Lexington Conditions: Clear
  • Temperature: 45.7°F / 7.6°CColder 2.9°F than last hour.
  • Dew Point: 33.8°FDecreased 2.0°Fsince last hour.
  • Relative Humidity: 63%Increased 2.0% since last hour.
  • Wind: Wind from NW NW 1 mph, 10-min avg: 3 mph, gust: 11 mph
  • Barometer: 30.10 inRising 0.03  inHg/hr Rising Slowly
  • Visibility: 10 miles
  • Rain Today: 0.00 in
  •   

Warning: Undefined variable $rc in /homepages/6/d276339138/htdocs/weather/20190804/ssi/nwsProduct.php on line 323

Warning: Undefined variable $rc in /homepages/6/d276339138/htdocs/weather/20190804/ssi/nwsProduct.php on line 325

Warning: Undefined variable $rc in /homepages/6/d276339138/htdocs/weather/20190804/ssi/nwsProduct.php on line 323

Warning: Undefined variable $rc in /homepages/6/d276339138/htdocs/weather/20190804/ssi/nwsProduct.php on line 325

Warning: Undefined variable $rc in /homepages/6/d276339138/htdocs/weather/20190804/ssi/nwsProduct.php on line 323

Warning: Undefined variable $rc in /homepages/6/d276339138/htdocs/weather/20190804/ssi/nwsProduct.php on line 325

Warning: Undefined variable $rc in /homepages/6/d276339138/htdocs/weather/20190804/ssi/nwsProduct.php on line 323

Warning: Undefined variable $rc in /homepages/6/d276339138/htdocs/weather/20190804/ssi/nwsProduct.php on line 325

Warning: Undefined variable $rc in /homepages/6/d276339138/htdocs/weather/20190804/ssi/nwsProduct.php on line 323

Warning: Undefined variable $rc in /homepages/6/d276339138/htdocs/weather/20190804/ssi/nwsProduct.php on line 325

Warning: Undefined variable $rc in /homepages/6/d276339138/htdocs/weather/20190804/ssi/nwsProduct.php on line 323

Warning: Undefined variable $rc in /homepages/6/d276339138/htdocs/weather/20190804/ssi/nwsProduct.php on line 325

Warning: Undefined variable $rc in /homepages/6/d276339138/htdocs/weather/20190804/ssi/nwsProduct.php on line 323

Warning: Undefined variable $rc in /homepages/6/d276339138/htdocs/weather/20190804/ssi/nwsProduct.php on line 325

Regional Weather Roundup
for Boston, MA

        
000
ASUS41 KBOX 061410
RWRBOX

REGIONAL WEATHER ROUNDUP
NATIONAL WEATHER SERVICE BOSTON/NORTON MA
900 AM EST TUE DEC 06 2022

NOTE:  "FAIR" INDICATES FEW OR NO CLOUDS BELOW 12,000 FEET WITH NO 
SIGNIFICANT WEATHER AND/OR OBSTRUCTIONS TO VISIBILITY.

MAZALL-061500-
EASTERN MASSACHUSETTS
  
CITY           SKY/WX    TMP DP  RH WIND       PRES   REMARKS
BOSTON         CLOUDY    48  44  86 S6        30.44R                  
BEVERLY        NOT AVBL                                               
LAWRENCE       SUNNY     37  35  92 CALM      30.46R                  
BEDFORD        SUNNY     35  32  88 CALM      30.43R                  
NORWOOD        SUNNY     46  41  82 S3        30.43R                  
MARSHFIELD       N/A     50  45  81 S8        30.44R                  
PLYMOUTH       SUNNY     50  43  77 VRB7      30.43R                  
TAUNTON          N/A    N/A N/A N/A MISG      30.42R                  
NEW BEDFORD    SUNNY     51  47  86 SE8       30.42R                  
$$

MAZALL-061500-
CAPE COD AND THE ISLANDS
  
CITY           SKY/WX    TMP DP  RH WIND       PRES   REMARKS
FALMOUTH       NOT AVBL                                               
HYANNIS        SUNNY     50  45  83 SE8       30.43R                  
CHATHAM        SUNNY     53  44  71 SE12      30.46S                  
PROVINCETOWN   SUNNY     51  44  77 SE12      30.45R                  
NANTUCKET      SUNNY     54  48  80 SE14      30.45R                  
MARTHAS VNYRD  SUNNY     53  46  77 SE13G21   30.43S                  
$$
 
MAZALL-061500-
CENTRAL AND WESTERN MASSACHUSETTS
  
CITY           SKY/WX    TMP DP  RH WIND       PRES   REMARKS
WORCESTER      CLOUDY    44  41  89 SE8       30.39R FOG              
FITCHBURG      SUNNY     40  34  79 CALM      30.43R                  
ORANGE         PTSUNNY   38  33  82 CALM      30.39S                  
SPRINGFIELD    PTSUNNY   40  37  90 CALM      30.36R                  
WESTFIELD      CLOUDY    37  31  78 N5        30.38R                  
NORTH ADAMS    PTSUNNY   49  42  77 SE15G23   30.33S                  
PITTSFIELD     CLOUDY    46  41  82 SE12G17   30.31S                  
$$
 
RIZALL-061500-
RHODE ISLAND
  
CITY           SKY/WX    TMP DP  RH WIND       PRES   REMARKS
PROVIDENCE     CLOUDY    42  40  92 CALM      30.42R                  
NEWPORT        MOSUNNY   51  46  83 SE10      30.41R                  
BLOCK ISLAND   MOSUNNY   53  47  79 SE16      30.41R                  
SMITHFIELD     SUNNY     44  44 100 SE8       30.42R                  
WESTERLY       MOSUNNY   54  49  83 E10G18    30.39R                  
$$
 
CTZALL-061500-
CONNECTICUT
  
CITY           SKY/WX    TMP DP  RH WIND       PRES   REMARKS
BRADLEY INTL   CLOUDY    40  33  76 CALM      30.38R                  
HARTFORD       MOSUNNY   40  33  76 CALM      30.38R                  
BRIDGEPORT     CLOUDY    47  45  93 NE8       30.35R                  
DANBURY        CLOUDY    40  32  73 N3        30.34S                  
GROTON         SUNNY     56  49  77 SE15      30.37S                  
NEW HAVEN      CLOUDY    47  43  86 N3        30.36R                  
CHESTER        FAIR      48  48 100 E5        30.37R                  
MERIDEN        MOSUNNY   37  31  78 N3        30.38R                  
WILLIMANTIC    CLOUDY    35  34  96 CALM      30.39S                  
OXFORD         CLOUDY    47  44  90 SE10      30.35R                  
$$

MEZ002-015-021-024-NHZ003-005-008-011-012-014-VTZ005-008-061500-
NORTHERN NEW ENGLAND
  
CITY           SKY/WX    TMP DP  RH WIND       PRES   REMARKS
PORTLAND ME    CLOUDY    48  44  86 SE8       30.48R                  
BANGOR ME      PTSUNNY   45  39  79 SE8       30.52R                  
CONCORD NH     CLOUDY    41  37  86 NW7       30.43R                  
MANCHESTER NH  CLOUDY    42  36  79 CALM      30.42S                  
NASHUA NH      SUNNY     38  37  97 CALM      30.44S                  
PORTSMOUTH NH  CLOUDY    42  40  93 CALM      30.44R                  
JAFFREY NH     CLOUDY    45  42  89 VRB7G17   30.39R                  
KEENE NH       CLOUDY    44  42  93 S7          N/A                   
BURLINGTON VT  PTSUNNY   44  32  62 S8        30.30R                  
MT. WASHINGTON FOG       25  25 100 S41G53      N/A  VSB 0   WCI   5  
$$

NYZ052-076-061500-
EASTERN NEW YORK
  
CITY           SKY/WX    TMP DP  RH WIND       PRES   REMARKS
ALBANY         CLOUDY    44  38  79 S5        30.31S                  
NEW YORK CITY  CLOUDY    49  45  86 NE8       30.31S                  
$$
 
ANZALL-061500-
MARINE OBSERVATIONS
  
STATION/POSITION TIME  TEMP    WIND        PRES    VSBY  WAVE
                       AIR SEA DIR/SP/G                  HT/PER
                 (UTC) (F)     (DEG/KT/KT) (MB)    (MI)  (FT/S)
BOSTON BUOY      1350      51  150/ 17/ 21 1031.0R         3/ 4
BUZZARDS BAY     1300   52     130/ 18/ 20 1029.8R
NANTUCKET SOUND  1350   51     130/ 14/ 16 1030.6R         2/ 3
MASS BAY-STELLWA 1204   49 50  130/ 14/ 17 1029.4R  1 7/8  3/ 4
ISLE OF SHOALS   1300   49     130/ 15/ 16 1030.0R
S OF BLOCK IS    1356      54                N/A           5/ 5
$$

......................KEY.........................
  SKY/WX - SKY CONDITION/PRESENT WEATHER
  TMP    - TEMPERATURE IN FAHRENHEIT
  DWPT   - DEWPOINT IN FAHRENHEIT
  RH     - RELATIVE HUMIDITY IN PERCENT
  WIND   - DIRECTION AND SPEED IN MPH
  PRES   - MEAN SEA LEVEL PRESSURE IN INCHES OF HG
  WCI    - WIND CHILL INDEX
  VSB    - VISIBILITY IN MILES
  HX     - HEAT INDEX
  TC     - TEMPERATURE IN CELSIUS
  VRB    - VARIABLE WIND DIRECTION
  N/A    - NOT AVAILABLE
  
      

Other recent Regional Weather Roundups

Thu Dec 8, 3:10pm

Thu Dec 8, 2:10pm

Thu Dec 8, 1:10pm

Thu Dec 8, 12:10pm

Thu Dec 8, 11:10am

Thu Dec 8, 10:10am

Thu Dec 8, 9:10am

Thu Dec 8, 8:10am

Thu Dec 8, 7:10am

Thu Dec 8, 6:10am

Thu Dec 8, 5:10am

Thu Dec 8, 4:10am

Thu Dec 8, 3:10am

Thu Dec 8, 2:10am

Thu Dec 8, 1:10am

Thu Dec 8, 12:10am

Wed Dec 7, 11:10pm

Wed Dec 7, 10:10pm

Wed Dec 7, 9:10pm

Wed Dec 7, 8:10pm

Wed Dec 7, 7:10pm

Wed Dec 7, 6:10pm

Wed Dec 7, 5:10pm

Wed Dec 7, 4:10pm

Wed Dec 7, 3:10pm

Wed Dec 7, 2:10pm

Wed Dec 7, 1:10pm

Wed Dec 7, 12:10pm

Wed Dec 7, 11:10am

Wed Dec 7, 10:10am

Wed Dec 7, 9:10am

Wed Dec 7, 8:10am

Wed Dec 7, 7:10am

Wed Dec 7, 6:10am

Wed Dec 7, 5:10am

Wed Dec 7, 4:10am

Wed Dec 7, 3:10am

Wed Dec 7, 2:10am

Wed Dec 7, 1:10am

Wed Dec 7, 12:10am

Tue Dec 6, 11:10pm

Tue Dec 6, 10:10pm

Tue Dec 6, 9:10pm

Tue Dec 6, 8:10pm

Tue Dec 6, 7:10pm

Tue Dec 6, 6:10pm

Tue Dec 6, 5:10pm

Tue Dec 6, 4:10pm

Tue Dec 6, 3:10pm

Tue Dec 6, 2:10pm

Tue Dec 6, 1:10pm

Tue Dec 6, 12:10pm

Tue Dec 6, 11:10am

Tue Dec 6, 10:10am

Tue Dec 6, 8:10am

Tue Dec 6, 7:10am

Tue Dec 6, 6:10am

Tue Dec 6, 5:10am

Tue Dec 6, 4:10am

Tue Dec 6, 3:10am

Tue Dec 6, 2:10am

Tue Dec 6, 1:10am

Tue Dec 6, 12:10am

Mon Dec 5, 11:10pm

Mon Dec 5, 10:10pm

Mon Dec 5, 9:10pm

Mon Dec 5, 8:10pm

Mon Dec 5, 7:10pm

Mon Dec 5, 6:10pm

Mon Dec 5, 5:10pm

Mon Dec 5, 4:10pm

Mon Dec 5, 3:10pm

Mon Dec 5, 2:10pm

Mon Dec 5, 1:10pm

Mon Dec 5, 12:10pm

Mon Dec 5, 11:10am

Mon Dec 5, 10:10am

Mon Dec 5, 9:10am

Mon Dec 5, 8:10am

Mon Dec 5, 7:10am

Mon Dec 5, 6:10am

Mon Dec 5, 5:10am

Mon Dec 5, 4:10am

Mon Dec 5, 3:10am

Mon Dec 5, 2:10am

Mon Dec 5, 1:10am

Mon Dec 5, 12:10am

Sun Dec 4, 11:10pm

Sun Dec 4, 10:10pm

Sun Dec 4, 9:10pm

Sun Dec 4, 8:10pm

Sun Dec 4, 7:10pm

Sun Dec 4, 6:10pm

Sun Dec 4, 5:10pm

Sun Dec 4, 4:10pm

Sun Dec 4, 3:10pm

Sun Dec 4, 2:10pm

Sun Dec 4, 1:10pm

Sun Dec 4, 12:10pm

Sun Dec 4, 11:10am

Sun Dec 4, 10:10am

Sun Dec 4, 9:10am

Sun Dec 4, 8:10am

Sun Dec 4, 7:10am

Sun Dec 4, 6:10am

Sun Dec 4, 5:10am

Sun Dec 4, 4:10am

Sun Dec 4, 3:10am

Sun Dec 4, 2:10am

Sun Dec 4, 1:10am

Sun Dec 4, 12:10am

Sat Dec 3, 11:10pm

Sat Dec 3, 10:10pm

Sat Dec 3, 9:10pm

Sat Dec 3, 8:10pm

Sat Dec 3, 7:10pm

Sat Dec 3, 6:10pm

Sat Dec 3, 5:10pm

Sat Dec 3, 4:10pm

Sat Dec 3, 3:10pm

Sat Dec 3, 2:10pm

Sat Dec 3, 1:10pm

Sat Dec 3, 12:10pm

Sat Dec 3, 11:10am

Sat Dec 3, 10:10am

Sat Dec 3, 9:10am

Sat Dec 3, 8:10am

Sat Dec 3, 7:10am

Sat Dec 3, 6:10am

Sat Dec 3, 5:10am

Sat Dec 3, 4:10am

Sat Dec 3, 3:10am

Sat Dec 3, 2:10am

Sat Dec 3, 1:10am

Sat Dec 3, 12:10am

Fri Dec 2, 11:10pm

Fri Dec 2, 10:10pm

Fri Dec 2, 9:10pm

Fri Dec 2, 8:10pm

Fri Dec 2, 7:10pm

Fri Dec 2, 6:10pm

Fri Dec 2, 5:10pm

Fri Dec 2, 4:10pm

Fri Dec 2, 3:10pm

Fri Dec 2, 2:10pm

Fri Dec 2, 1:10pm

Fri Dec 2, 12:10pm

Fri Dec 2, 11:10am

Fri Dec 2, 10:10am

Fri Dec 2, 9:10am

Fri Dec 2, 8:10am

Fri Dec 2, 7:10am

Fri Dec 2, 6:10am

Fri Dec 2, 5:10am

Fri Dec 2, 4:10am

Fri Dec 2, 3:10am

Fri Dec 2, 2:10am

Fri Dec 2, 1:10am

Fri Dec 2, 12:10am

Thu Dec 1, 11:10pm

Thu Dec 1, 10:10pm

Thu Dec 1, 9:10pm

Thu Dec 1, 8:10pm

Thu Dec 1, 7:10pm

Thu Dec 1, 6:10pm

Thu Dec 1, 5:10pm

Thu Dec 1, 4:10pm

Meta data:

ID: f69708dd-9e73-4324-9f91-79efc6244fdc
Link: https://api.weather.gov/products/f69708dd-9e73-4324-9f91-79efc6244fdc